TimeCDT,TemperatureF,Dew PointF,Humidity,Sea Level PressureIn,VisibilityMPH,Wind Direction,Wind SpeedMPH,Gust SpeedMPH,PrecipitationIn,Events,Conditions,WindDirDegrees,DateUTC
12:53 AM,50.0,39.0,66,30.08,10.0,South,6.9,-,N/A,,Clear,190,2013-03-15 05:53:00
1:53 AM,53.6,42.8,67,30.08,9.0,SSW,10.4,-,N/A,,Clear,210,2013-03-15 06:53:00
2:53 AM,55.0,42.1,62,30.06,10.0,SW,9.2,-,N/A,,Clear,220,2013-03-15 07:53:00
3:53 AM,53.6,42.8,67,30.05,10.0,SW,10.4,-,N/A,,Clear,220,2013-03-15 08:53:00
4:53 AM,51.1,41.0,68,30.02,10.0,SSW,6.9,-,N/A,,Clear,200,2013-03-15 09:53:00
5:53 AM,53.1,42.1,66,30.02,10.0,SSW,10.4,-,N/A,,Clear,200,2013-03-15 10:53:00
6:53 AM,53.1,43.0,69,30.00,10.0,South,10.4,-,N/A,,Clear,190,2013-03-15 11:53:00
7:53 AM,54.0,43.0,66,30.00,10.0,SSW,9.2,-,N/A,,Clear,200,2013-03-15 12:53:00
8:53 AM,57.9,44.1,60,29.99,10.0,SSW,15.0,-,N/A,,Clear,200,2013-03-15 13:53:00
9:53 AM,63.0,44.1,50,29.97,10.0,SSW,16.1,24.2,N/A,,Clear,210,2013-03-15 14:53:00
10:53 AM,66.9,44.1,44,29.95,10.0,SW,16.1,23.0,N/A,,Clear,230,2013-03-15 15:53:00
11:53 AM,70.0,44.1,39,29.93,10.0,SSW,19.6,23.0,N/A,,Clear,210,2013-03-15 16:53:00
12:53 PM,75.0,44.1,33,29.90,10.0,SSW,17.3,-,N/A,,Clear,210,2013-03-15 17:53:00
1:53 PM,75.9,44.1,32,29.86,10.0,SSW,17.3,23.0,N/A,,Clear,210,2013-03-15 18:53:00
2:53 PM,75.9,43.0,31,29.81,10.0,SW,17.3,27.6,N/A,,Clear,220,2013-03-15 19:53:00
3:53 PM,77.0,43.0,30,29.79,10.0,SSW,21.9,28.8,N/A,,Clear,210,2013-03-15 20:53:00
4:53 PM,77.0,46.0,33,29.78,10.0,SW,18.4,26.5,N/A,,Clear,220,2013-03-15 21:53:00
5:53 PM,75.2,46.4,36,29.78,10.0,SSW,17.3,25.3,N/A,,Clear,210,2013-03-15 22:53:00
6:53 PM,73.0,46.0,38,29.75,10.0,SSW,13.8,-,N/A,,Clear,200,2013-03-15 23:53:00
7:53 PM,69.1,46.0,44,29.74,10.0,South,12.7,-,N/A,,Clear,190,2013-03-16 00:53:00
8:53 PM,69.1,46.0,44,29.75,10.0,SSW,13.8,-,N/A,,Clear,200,2013-03-16 01:53:00
9:53 PM,69.1,46.0,44,29.73,10.0,SSW,16.1,-,N/A,,Clear,200,2013-03-16 02:53:00
10:53 PM,68.0,46.0,45,29.73,10.0,SSW,20.7,31.1,N/A,,Clear,210,2013-03-16 03:53:00
11:53 PM,68.0,44.1,42,29.73,10.0,SSW,23.0,28.8,N/A,,Clear,210,2013-03-16 04:53:00